Date String (YYYY-MM-DD hh:mm:ss) UTC,Instrument flags,Ambient pressure (hPa),Sample flow (lpm),Bypass flow (lpm),Sample temperature (°C),Ambient temperature (°C),ASC tube jacket temperature (°C),LED temperature (°C),Box temperature (°C),Sample RH (%),Span deviation,Mass concentration (μg/m³),Mass concentration (μg/m³),Mass concentration (μg/m³)
DateTimeUTC,F1_M11,P_M11,Q1_M11,Q2_M11,T1_M11,T2_M11,T3_M11,T4_M11,T5_M11,U1_M11,ZSPAN_M11,X0_M11,X2_M11,X1_M11
2022-08-04 20:00:00,,0827.7,4.99,0.00,29.2,27.2,00.0,37.9,31.0,24.4,0003.1,0019.54,0009.72,0007.24
2022-08-04 20:01:00,,0827.7,5.00,0.00,29.2,27.4,00.0,37.9,31.0,24.3,0003.2,0019.31,0009.64,0007.22
2022-08-04 20:02:00,,0827.7,5.00,0.00,29.2,27.6,00.0,37.9,31.1,24.6,0000.9,0019.18,0009.58,0007.21
2022-08-04 20:03:00,,0827.6,5.00,0.00,29.2,27.9,00.0,37.9,31.2,24.2,0001.4,0019.91,0009.54,0007.20
2022-08-04 20:04:00,,0827.6,5.00,0.00,29.3,28.0,00.0,38.0,31.2,24.2,0000.0,0020.12,0009.51,0007.17
2022-08-04 20:05:00,,0827.6,5.00,0.00,29.3,27.9,00.0,38.0,31.2,23.7,0000.0,0021.02,0009.51,0007.15
2022-08-04 20:06:00,,0827.6,4.99,0.00,29.3,27.3,00.0,37.9,31.1,24.2,0000.0,0021.24,0009.48,0007.13
2022-08-04 20:07:00,,0827.6,5.00,0.00,29.2,27.1,00.0,37.9,31.0,24.0,0000.1,0020.85,0009.45,0007.12
2022-08-04 20:08:00,,0827.6,5.01,0.00,29.2,27.2,00.0,37.9,31.0,24.4,0003.1,0020.83,0009.41,0007.10
2022-08-04 20:09:00,,0827.5,4.99,0.00,29.2,27.4,00.0,37.9,31.0,25.2,0001.4,0021.38,0009.40,0007.09
2022-08-04 20:10:00,,0827.6,5.02,0.00,29.2,27.6,00.0,37.9,31.1,24.9,0001.9,0022.16,0009.43,0007.08
2022-08-04 20:11:00,,0827.7,5.00,0.00,29.2,27.8,00.0,37.9,31.1,24.2,0002.4,0022.85,0009.45,0007.08
2022-08-04 20:12:00,,0827.7,5.00,0.00,29.2,28.0,00.0,37.9,31.2,23.8,0001.7,0023.39,0009.46,0007.10
2022-08-04 20:13:00,,0827.6,5.01,0.00,29.3,27.8,00.0,37.9,31.2,24.0,0001.2,0024.29,0009.51,0007.11
2022-08-04 20:14:00,,0827.7,5.00,0.00,29.2,27.2,00.0,37.9,31.0,24.2,0001.3,0024.52,0009.53,0007.10
2022-08-04 20:15:00,,0827.6,5.01,0.00,29.2,27.0,00.0,37.9,31.0,23.8,0001.2,0024.28,0009.55,0007.10
2022-08-04 20:16:00,,0827.6,4.99,0.00,29.2,27.1,00.0,37.9,31.0,23.9,0000.8,0024.11,0009.49,0007.11
2022-08-04 20:17:00,,0827.6,5.00,0.00,29.1,27.3,00.0,37.9,31.0,24.5,0000.5,0023.30,0009.47,0007.10
2022-08-04 20:18:00,,0827.6,5.00,0.00,29.1,27.5,00.0,37.9,31.0,24.4,0000.2,0024.15,0009.44,0007.10
2022-08-04 20:19:00,,0827.5,5.00,0.00,29.2,27.7,00.0,37.9,31.1,23.6,-000.3,0023.89,0009.44,0007.09
2022-08-04 20:20:00,,0827.5,5.01,0.00,29.2,28.0,00.0,37.9,31.2,23.5,-000.5,0023.83,0009.40,0007.06
2022-08-04 20:21:00,,0827.5,4.99,0.00,29.3,28.1,00.0,37.9,31.3,23.1,-000.3,0023.28,0009.34,0007.05
2022-08-04 20:22:00,,0827.5,5.00,0.00,29.3,28.0,00.0,37.9,31.3,23.3,-000.2,0022.47,0009.30,0007.04
2022-08-04 20:23:00,,0827.5,5.00,0.00,29.3,27.4,00.0,37.9,31.1,23.6,0000.4,0022.78,0009.29,0007.02
2022-08-04 20:24:00,,0827.5,4.99,0.00,29.2,27.1,00.0,37.9,31.1,23.9,0000.7,0022.39,0009.28,0006.99
2022-08-04 20:25:00,,0827.5,5.01,0.00,29.2,27.2,00.0,37.9,31.1,23.5,0001.0,0022.03,0009.29,0006.98
2022-08-04 20:26:00,,0827.5,5.00,0.00,29.2,27.4,00.0,37.9,31.0,23.1,0001.2,0022.04,0009.29,0006.96
2022-08-04 20:27:00,,0827.5,5.00,0.00,29.2,27.6,00.0,37.9,31.0,23.4,0001.5,0022.03,0009.29,0006.93
2022-08-04 20:28:00,,0827.6,5.00,0.00,29.2,27.8,00.0,37.9,31.1,23.8,0002.0,0022.53,0009.33,0006.91
2022-08-04 20:29:00,,0827.5,5.01,0.00,29.3,28.0,00.0,37.9,31.2,23.4,0002.3,0022.21,0009.40,0006.90
2022-08-04 20:30:00,,0827.5,5.00,0.00,29.3,28.1,00.0,38.0,31.3,23.2,0002.8,0022.49,0009.37,0006.88
2022-08-04 20:31:00,,0827.5,4.99,0.00,29.3,27.7,00.0,38.0,31.2,22.6,0003.3,0021.60,0009.33,0006.88
2022-08-04 20:32:00,,0827.4,5.01,0.00,29.3,27.2,00.0,37.9,31.1,22.8,0003.4,0021.02,0009.35,0006.89
2022-08-04 20:33:00,,0827.4,4.99,0.00,29.3,27.2,00.0,37.9,31.1,22.6,0003.8,0021.05,0009.36,0006.87
2022-08-04 20:34:00,,0827.4,4.99,0.00,29.2,27.3,00.0,37.9,31.0,22.6,0004.1,0021.12,0009.31,0006.86
2022-08-04 20:35:00,,0827.4,5.00,0.00,29.2,27.5,00.0,37.9,31.0,23.1,0004.2,0020.76,0009.23,0006.85
2022-08-04 20:36:00,,0827.4,5.00,0.00,29.2,27.7,00.0,37.9,31.1,23.1,0004.0,0020.71,0009.16,0006.84
2022-08-04 20:37:00,,0827.4,5.01,0.00,29.3,27.9,00.0,38.0,31.2,22.3,0004.0,0020.37,0009.14,0006.84
2022-08-04 20:38:00,,0827.4,5.00,0.00,29.3,28.0,00.0,38.0,31.3,22.3,0003.6,0020.46,0009.11,0006.84
2022-08-04 20:39:00,,0827.3,5.00,0.00,29.3,27.6,00.0,37.9,31.2,22.2,0003.1,0020.65,0009.00,0006.84
2022-08-04 20:40:00,,0827.4,5.01,0.00,29.3,27.1,00.0,37.9,31.1,22.2,0002.9,0020.74,0008.92,0006.82
2022-08-04 20:41:00,,0827.4,5.02,0.00,29.2,27.1,00.0,37.9,31.1,22.5,0002.9,0020.21,0008.85,0006.80
2022-08-04 20:42:00,,0827.3,4.99,0.00,29.2,27.2,00.0,37.9,31.0,22.7,0002.7,0020.01,0008.81,0006.78
2022-08-04 20:43:00,,0827.3,5.00,0.00,29.2,27.4,00.0,37.9,31.0,23.0,0002.5,0020.38,0008.76,0006.76
2022-08-04 20:44:00,,0827.3,4.99,0.00,29.2,27.7,00.0,37.9,31.1,23.4,0002.4,0020.31,0008.74,0006.75
2022-08-04 20:45:00,,0827.4,5.00,0.00,29.3,27.9,00.0,37.9,31.2,23.2,0001.8,0019.30,0008.75,0006.75
2022-08-04 20:46:00,,0827.4,5.00,0.00,29.3,28.1,00.0,38.0,31.3,22.6,0001.4,0019.32,0008.75,0006.75
2022-08-04 20:47:00,,0827.4,5.01,0.00,29.3,28.0,00.0,38.0,31.3,22.6,0000.9,0018.77,0008.78,0006.75
2022-08-04 20:48:00,,0827.4,5.01,0.00,29.3,27.4,00.0,38.0,31.2,22.2,0000.8,0018.66,0008.76,0006.74
2022-08-04 20:49:00,,0827.4,5.00,0.00,29.3,27.2,00.0,38.0,31.1,22.7,0001.3,0018.98,0008.76,0006.73
2022-08-04 20:50:00,,0827.3,5.00,0.00,29.2,27.2,00.0,37.9,31.1,22.7,0001.3,0018.86,0008.81,0006.73
2022-08-04 20:51:00,,0827.4,5.02,0.00,29.2,27.4,00.0,37.9,31.1,22.7,0001.3,0018.64,0008.79,0006.74
2022-08-04 20:52:00,,0827.4,4.99,0.00,29.2,27.6,00.0,37.9,31.1,22.7,0001.2,0019.08,0008.86,0006.75
2022-08-04 20:53:00,,0827.4,5.00,0.00,29.3,27.8,00.0,38.0,31.2,22.6,0000.8,0019.73,0008.94,0006.77
2022-08-04 20:54:00,,0827.3,5.00,0.00,29.3,28.0,00.0,38.0,31.2,22.5,0000.7,0019.98,0008.98,0006.77
2022-08-04 20:55:00,,0827.3,5.00,0.00,29.3,27.9,00.0,38.0,31.3,22.7,0000.6,0020.34,0008.95,0006.77
2022-08-04 20:56:00,,0827.2,4.99,0.00,29.3,27.3,00.0,37.9,31.1,23.0,0000.7,0021.20,0008.91,0006.76
2022-08-04 20:57:00,,0827.2,5.01,0.00,29.3,27.1,00.0,37.9,31.1,23.2,0000.8,0021.47,0008.90,0006.75
2022-08-04 20:58:00,,0827.2,4.99,0.00,29.2,27.2,00.0,37.9,31.1,22.9,0001.0,0021.88,0008.88,0006.75
2022-08-04 20:59:00,,0827.2,5.01,0.00,29.2,27.4,00.0,37.9,31.0,22.9,0001.0,0022.72,0008.94,0006.74
